FENGYUN 1C DEB

Satellite information

Favourite Embed

Satellite Type and Status

DEBRISIN ORBIT

Key statistics

Satellite FENGYUN 1C DEB at a glance.

Uptime

9668

Days in orbit

Revolutions

≈ 14.4

Per day

Orbit

SSO

Sun Synchronous Orbit

Inclination

98.8

Latest

Satellite identification and parameters

Extended collection of information and parameters for FENGYUN 1C DEB.

Object identification

Identified? True

Debris? True

Object name: FENGYUN 1C DEB

International designator: 1999-025EMD

Object number (NORAD): 37712

Object ID (CCSDS): 37712

Country: PEOPLES REPUBLIC OF CHINA (PRC)

Current information (Y/N): Y

RCS size: SMALL

Orbital parameters

Period: 100.263 minutes

Inclination: 98.8155 deg

SMA: 7149.129 km

Apoapsis: 828.543 km

Periapsis: 713.445 km

RAAN: 74.9881 deg

Eccentricy: 0.00804979

Argument of periapsis: 139.0987 deg

Mean anomaly: 37.188 deg

Mean motion: 14.36226818 rev/day

Mean motion (dot): 0.00002355 rev/day2

B* drag term: 0.00079257893 1/REarth

Two-line elements (TLE)

Creation date: Oct. 24, 2025, 6:33 p.m.

Reference frame: TEME

Reference center: EARTH

Epoch: Oct. 24, 2025, 3:11 a.m. UTC

TLE line 0: 0 FENGYUN 1C DEB

TLE line 1: 1 37712U 99025EMD 25297.13300756 .00002355 00000-0 79258-3 0 9994

TLE line 2: 2 37712 98.8155 74.9881 0080498 139.0987 37.1880 14.36226818632482

Live tracking on map

Real-time ground track for satellite FENGYUN 1C DEB.

In-orbit conjunctions

A list of the most updated potential collisions computed for object FENGYUN 1C DEB.

Target Orbit TCA Probability of collision Miss distance Type
IRIDIUM 33 DEB LEO 2025-05-29 05:22:36 0.0001042538 100.0 (m) DEBRIS

Associated space launch

Chinese polar orbiting meteorological satellite

FENGYUN 1C DEB was lifted into orbit during the mission ‘Long March 4B | Feng Yun 1C’, on board a Long March 4B space rocket.

The launch took place on May 10, 1999, 1:33 a.m. from Launch Complex 7.

For more information about the launch, click the button.

Launch to space Long March 4B | Feng Yun 1C
Long March 4B | Feng Yun 1C

Agency: N/A

Status: Launch Successful

Launch date: May 10, 1999, 1:33 a.m. UTC

Rocket: Long March 4B

Launch pad: Launch Complex 7

Location: Taiyuan Satellite Launch Center, People's Republic of China

...

Latest news about this satellite

There are no fresh news available about this satellite. Check back as we update our databases every day.


Newsletter sign-up

Weekly statistics, charts and insights to help you stay on top of the space industry.